Weather History for PAOM - December, 2012

Change the Weather History Date:

Thursday, December 27, 2012

  Actual Average Record
Temperature  
Mean Temperature 19 °F -  
Max Temperature 30 °F 15 °F 40 °F (1993)
Min Temperature 10 °F - -41 °F (1961)
Degree Days  
Heating Degree Days 46 58  
Month to date heating degree days 1488  
Since 1 July heating degree days 5586  
Cooling Degree Days 0    
Month to date cooling degree days  
Year to date cooling degree days  
Moisture  
Dew Point 17 °F    
Average Humidity 73    
Maximum Humidity 93    
Minimum Humidity 49    
Precipitation  
Precipitation 0.02 in 0.04 in 0.50 in (1994)
Month to date precipitation 0.94  
Year to date precipitation 16.67  
Snow  
Snow 0.00 in 0.50 in 7.00 in (1994)
Month to date snowfall 12.5  
Since 1 July snowfall 29.8  
Snow Depth -    
Sea Level Pressure  
Sea Level Pressure 29.32 in    
Wind  
Wind Speed 12 mph (NNE)    
Max Wind Speed 21 mph    
Max Gust Speed 28 mph    
Visibility 8 miles    
Events Snow    
T = Trace of Precipitation, MM = Missing Value Source: NWS Daily Summary

Daily Weather History Graph

Daily Weather History Graph

Search for Another Location

Airport or City:

Trip Planner

Search our weather history database for the weather conditions in past years. The results will help you decide how hot, cold, wet, or windy it might be!

Date:

Astronomy

Dec. 27, 2012 Rise Set
Actual Time 12:03 PM AKST 4:03 PM AKST
Civil Twilight 10:41 AM AKST 5:24 PM AKST
Nautical Twilight 9:31 AM AKST 6:35 PM AKST
Astronomical Twilight 8:30 AM AKST 7:35 PM AKST
Moon 4:22 PM AKST (12/27) 11:00 AM AKST (12/27)
Length of Visible Light 6h 43m
Length of Day
4h 00m
Full, 100% of the Moon is Illuminated
Dec 27
Full
Dec 28
Full
Jan 4
Last Quarter
Jan 11
New
Jan 18
First Quarter

Hourly Weather History & Observations

Time (AKST) Temp. Windchill Dew Point Humidity Pressure Visibility Wind Dir Wind Speed Gust Speed Precip Events Conditions
12:53 AM 15.1 °F 7.7 °F 3.9 °F 61% 29.42 in 10.0 mi East 4.6 mph - N/A   Mostly Cloudy
1:53 AM 15.1 °F - 6.1 °F 68% 29.41 in 10.0 mi Calm Calm - N/A   Mostly Cloudy
3:53 AM 21.9 °F 8.2 °F 12.0 °F 66% 29.38 in 10.0 mi North 16.1 mph - N/A   Overcast
4:53 AM 23.0 °F 8.3 °F 16.0 °F 74% 29.36 in 9.0 mi NNE 19.6 mph - N/A   Overcast
5:53 AM 24.1 °F 10.6 °F 17.1 °F 75% 29.36 in 10.0 mi NNE 17.3 mph - N/A   Overcast
6:46 AM 23.0 °F 8.7 °F 19.4 °F 86% 29.33 in 2.0 mi NNE 18.4 mph - 0.00 in Snow Light Snow
6:53 AM 23.0 °F 8.0 °F 19.0 °F 85% 29.34 in 2.0 mi NNE 20.7 mph - 0.00 in Snow Light Snow
7:28 AM 21.2 °F 5.6 °F 19.4 °F 93% 29.33 in 2.5 mi NNE 20.7 mph - 0.00 in Snow Light Snow
7:38 AM 21.2 °F 5.6 °F 19.4 °F 93% 29.33 in 1.8 mi NNE 20.7 mph - 0.00 in Snow Light Snow
7:53 AM 21.9 °F 6.9 °F 19.9 °F 92% 29.33 in 1.2 mi NNE 19.6 mph 27.6 mph 0.02 in Snow Light Snow
8:08 AM 21.2 °F 6.4 °F 19.4 °F 93% 29.33 in 2.0 mi NNE 18.4 mph - 0.00 in Snow Light Snow
8:38 AM 21.2 °F 6.4 °F 19.4 °F 93% 29.32 in 4.0 mi NNE 18.4 mph - 0.00 in Snow Light Snow
8:53 AM 24.1 °F 11.0 °F 19.9 °F 84% 29.33 in 3.0 mi NNE 16.1 mph - 0.00 in Snow Light Snow
9:53 AM 26.1 °F 14.5 °F 21.0 °F 81% 29.32 in 10.0 mi NNE 13.8 mph - 0.01 in   Overcast
10:53 AM 26.1 °F 14.5 °F 18.0 °F 71% 29.32 in 10.0 mi NNE 13.8 mph - N/A   Overcast
11:53 AM 27.0 °F 15.6 °F 18.0 °F 69% 29.32 in 10.0 mi NE 13.8 mph - N/A   Overcast
12:53 PM 24.1 °F 9.4 °F 15.1 °F 69% 29.30 in 10.0 mi NE 20.7 mph - N/A   Mostly Cloudy
1:53 PM 23.0 °F 10.1 °F 15.1 °F 72% 29.30 in 10.0 mi NE 15.0 mph - N/A   Mostly Cloudy
2:53 PM 26.1 °F 16.8 °F 17.1 °F 69% 29.29 in 10.0 mi NNE 9.2 mph - N/A   Overcast
3:53 PM 27.0 °F 18.0 °F 18.0 °F 69% 29.28 in 10.0 mi NNE 9.2 mph - N/A   Overcast
4:53 PM 28.0 °F 21.7 °F 19.0 °F 69% 29.28 in 10.0 mi NNE 5.8 mph - N/A   Overcast
5:53 PM 24.8 °F 19.1 °F 17.6 °F 74% 29.27 in 10.0 mi ESE 4.6 mph - N/A   Mostly Cloudy
6:53 PM 18.0 °F - 14.0 °F 84% 29.28 in 10.0 mi Calm Calm - N/A   Scattered Clouds
7:53 PM 28.0 °F 22.8 °F 16.0 °F 61% 29.28 in 10.0 mi NNE 4.6 mph - N/A   Scattered Clouds
8:53 PM 26.1 °F 17.6 °F 15.1 °F 63% 29.28 in 10.0 mi NNE 8.1 mph - N/A   Mostly Cloudy
9:53 PM 28.0 °F 20.0 °F 17.1 °F 63% 29.28 in 10.0 mi NE 8.1 mph - N/A   Overcast
10:53 PM 27.0 °F 18.0 °F 17.1 °F 66% 29.28 in 10.0 mi NNE 9.2 mph - N/A   Overcast
11:53 PM 30.9 °F 23.5 °F 17.1 °F 57% 29.29 in 10.0 mi ENE 8.1 mph - N/A   Overcast